GW1778 Weather Reports


Display with metric or nautical units.
time (UTC)temp
F
wind
direction
speed
MPH
gust
MPH
rain 1hr
in
rain 24hr
in
rain mn
in
humidity
%
barometer
mb
20260508054721 59 278 0.0 0.0 0.00 0.00 0.00 99 1017.0
20260508054220 59 305 0.0 0.0 0.00 0.00 0.00 99 1017.2
20260508053716 59 295 0.0 0.0 0.00 0.00 0.00 99 1017.1
20260508053214 59 295 0.0 0.0 0.00 0.00 0.00 99 1017.6
20260508052711 59 298 0.0 0.0 0.00 0.00 0.00 99 1017.2
20260508052208 59 289 0.0 0.0 0.00 0.00 0.00 99 1017.4
20260508051704 59 295 0.0 0.0 0.00 0.00 0.00 99 1017.1
20260508051159 59 292 0.0 0.0 0.00 0.00 0.00 99 1017.3
20260508050656 59 307 0.0 0.0 0.00 0.00 0.00 99 1017.2
20260508050154 59 307 0.0 0.0 0.00 0.00 0.00 99 1017.2
20260508045649 59 308 0.0 0.0 0.00 0.00 0.00 99 1017.4
20260508045147 59 319 0.0 0.0 0.00 0.00 0.00 99 1017.2
20260508044644 59 296 0.0 0.0 0.00 0.00 0.00 99 1017.3
20260508044140 59 303 0.0 0.0 0.00 0.00 0.00 99 1017.2
20260508043636 59 301 0.0 0.0 0.00 0.00 0.00 99 1017.0
20260508043135 59 294 0.0 0.0 0.00 0.00 0.00 99 1017.0
20260508042631 59 299 0.0 0.0 0.00 0.00 0.00 99 1016.9
20260508042128 59 298 0.0 0.0 0.00 0.00 0.00 99 1017.0
20260508041624 59 292 0.0 0.0 0.00 0.00 0.00 99 1016.9
20260508041121 59 298 0.0 0.0 0.00 0.00 0.00 99 1017.0
20260508040618 59 302 0.0 0.0 0.00 0.00 0.00 99 1017.1
20260508040116 59 296 0.0 0.0 0.00 0.00 0.00 99 1017.1
20260508035613 59 299 0.0 0.0 0.00 0.00 0.00 99 1017.1
20260508035110 59 297 0.0 0.0 0.00 0.00 0.00 99 1017.1
20260508034606 59 297 0.0 0.0 0.00 0.00 0.00 99 1017.4
20260508034103 59 296 0.0 0.0 0.00 0.00 0.00 99 1017.1
20260508033601 59 298 0.0 0.0 0.00 0.00 0.00 99 1017.2
20260508033059 59 297 0.0 0.0 0.00 0.00 0.00 99 1017.1
20260508032555 59 313 0.0 0.0 0.00 0.00 0.00 99 1017.3
20260508032053 59 304 0.0 0.0 0.00 0.00 0.00 99 1017.6
20260508031550 59 306 0.0 0.0 0.00 0.00 0.00 99 1017.3
20260508031046 59 299 0.0 0.0 0.00 0.00 0.00 99 1017.6
20260508030542 59 298 0.0 0.0 0.00 0.00 0.00 99 1017.7
20260508030041 59 304 0.0 0.0 0.00 0.00 0.00 99 1017.8
20260508025536 59 294 0.0 0.0 0.00 0.00 0.00 99 1017.3
20260508025033 59 292 0.0 0.0 0.00 0.00 0.00 99 1017.4
20260508024529 59 295 0.0 0.0 0.00 0.00 0.00 99 1017.3
20260508024027 59 304 0.0 0.0 0.00 0.00 0.00 99 1017.6
20260508023523 59 305 0.0 0.0 0.00 0.00 0.00 99 1017.4
20260508023021 59 303 0.0 0.0 0.00 0.00 0.00 99 1017.6
20260508022516 59 314 0.0 0.0 0.00 0.00 0.00 99 1017.4
20260508022013 59 318 0.0 0.0 0.00 0.00 0.00 99 1017.7
20260508021509 59 295 0.0 0.0 0.00 0.00 0.00 99 1017.4
20260508021005 59 303 0.0 0.0 0.00 0.00 0.00 99 1017.8
20260508020503 59 303 0.0 0.0 0.00 0.00 0.00 99 1017.7
20260508020001 59 309 0.0 0.0 0.00 0.00 0.00 99 1017.7
20260508015458 59 304 0.0 0.0 0.00 0.00 0.00 99 1017.7
20260508014954 59 303 0.0 0.0 0.00 0.00 0.00 99 1018.0
20260508014451 59 308 0.0 0.0 0.00 0.00 0.00 99 1017.8
20260508013947 60 301 0.0 0.0 0.00 0.00 0.00 99 1017.9
20260508013443 60 303 0.0 0.0 0.00 0.00 0.00 99 1018.0
20260508012941 60 303 0.0 0.0 0.00 0.00 0.00 99 1018.0
20260508012437 59 305 0.0 0.0 0.00 0.00 0.00 99 1018.1
20260508011935 60 302 0.0 0.0 0.00 0.00 0.00 99 1018.3
20260508011434 60 310 0.0 0.0 0.00 0.00 0.00 99 1018.2
20260508010930 60 310 0.0 0.0 0.00 0.00 0.00 99 1018.3
20260508010427 60 308 0.0 0.0 0.00 0.00 0.00 99 1018.1
20260508005924 60 303 0.0 0.0 0.00 0.00 0.00 99 1018.2
20260508005421 60 304 0.0 0.0 0.00 0.00 0.00 99 1018.3
20260508004917 60 306 0.0 0.0 0.00 0.00 0.00 99 1018.2
20260508004413 60 303 0.0 0.0 0.00 0.00 0.00 99 1018.4
20260508003910 60 303 0.0 0.0 0.00 0.00 0.00 99 1018.4
20260508003407 60 307 0.0 0.0 0.00 0.00 0.00 99 1018.4
20260508002904 60 307 0.0 0.0 0.00 0.00 0.00 99 1018.3
20260508002400 60 312 0.0 0.0 0.00 0.00 0.00 99 1018.3
20260508001857 60 310 0.0 0.0 0.00 0.00 0.00 99 1018.5
20260508001353 60 305 0.0 0.0 0.00 0.00 0.00 99 1018.4
20260508000850 60 303 0.0 0.0 0.00 0.00 0.00 99 1018.5
20260508000346 60 303 0.0 0.0 0.00 0.00 0.00 99 1018.0
20260507235842 61 305 0.0 0.0 0.00 0.00 0.00 99 1018.0
20260507235340 61 303 0.0 0.0 0.00 0.00 0.00 99 1018.0
20260507234837 61 296 0.0 0.0 0.00 0.00 0.00 99 1017.8
20260507234334 61 302 0.0 0.0 0.00 0.00 0.00 99 1018.2
20260507233830 61 296 0.0 0.0 0.00 0.00 0.00 99 1018.0
20260507233328 61 298 0.0 0.0 0.00 0.00 0.00 99 1018.0
20260507232826 61 304 0.0 0.0 0.00 0.00 0.00 99 1018.2
20260507232322 62 294 0.0 0.0 0.00 0.00 0.00 99 1018.0
20260507231819 61 316 0.0 0.0 0.00 0.00 0.00 99 1017.8
20260507231316 62 313 0.0 0.0 0.00 0.00 0.00 99 1017.8
20260507230812 62 303 0.0 0.0 0.00 0.00 0.00 99 1018.1
20260507230309 62 307 0.0 0.0 0.00 0.00 0.00 99 1018.1
20260507225804 62 308 0.0 0.0 0.00 0.00 0.00 99 1018.0
20260507225300 62 315 1.0 1.0 0.00 0.00 0.00 99 1018.1
20260507224756 62 304 0.0 0.0 0.00 0.00 0.00 99 1017.9
20260507224253 62 305 0.0 0.0 0.00 0.00 0.00 98 1018.1
20260507223749 63 299 0.0 0.0 0.00 0.00 0.00 98 1018.0
20260507223246 63 315 0.0 0.0 0.00 0.00 0.00 98 1018.0
20260507222743 63 316 0.0 0.0 0.00 0.00 0.00 97 1017.8
20260507222239 64 309 0.0 0.0 0.00 0.00 0.00 97 1018.0
20260507221736 64 306 0.0 0.0 0.00 0.00 0.00 96 1017.9
20260507221232 64 314 0.0 0.0 0.00 0.00 0.00 97 1017.9
20260507220729 64 308 0.0 0.0 0.00 0.00 0.00 96 1017.8
20260507220228 64 303 0.0 0.0 0.00 0.00 0.00 94 1017.6
20260507215723 64 303 0.0 0.0 0.00 0.00 0.00 94 1017.7
20260507215221 64 304 0.0 0.0 0.00 0.00 0.00 94 1017.7
20260507214718 0 0.0 0.0 0.00 0.00 0.00 1017.7
20260507214215 0 0.0 0.0 0.00 0.00 0.00 1017.6
20260507213710 0 0.0 0.0 0.00 0.00 0.00 1017.7
20260507213208 0 0.0 0.0 0.00 0.00 0.00 1017.8
20260507212704 0 0.0 0.0 0.00 0.00 0.00 1017.6
20260507212200 0 0.0 0.0 0.00 0.00 0.00 1017.7
20260507211657 0 0.0 0.0 0.00 0.00 0.00 1017.7
20260507211153 0 0.0 0.0 0.00 0.00 0.00 1017.6
20260507210650 0 0.0 0.0 0.00 0.00 0.00 1017.6
20260507210147 0 0.0 0.0 0.00 0.00 0.00 1017.7
20260507205643 73 331 1.0 1.0 0.00 0.00 0.00 72 1017.3
20260507205140 73 331 1.0 1.0 0.00 0.00 0.00 72 1017.6
20260507204636 73 331 1.0 1.0 0.00 0.00 0.00 72 1017.4
20260507204134 73 328 1.0 2.0 0.00 0.00 0.00 71 1017.7
20260507203632 74 19 2.0 2.0 0.00 0.00 0.00 70 1017.4
20260507203129 74 337 1.0 1.0 0.00 0.00 0.00 69 1017.4
20260507202625 75 336 2.0 2.0 0.00 0.00 0.00 68 1017.6
20260507202121 75 6 2.0 2.0 0.00 0.00 0.00 66 1017.4
20260507201616 77 12 2.0 3.0 0.00 0.00 0.00 67 1017.6
20260507201114 77 359 2.0 3.0 0.00 0.00 0.00 64 1017.7
20260507200609 77 351 3.0 3.0 0.00 0.00 0.00 63 1017.6
20260507200105 77 4 3.0 3.0 0.00 0.00 0.00 63 1017.4
20260507195603 78 24 3.0 3.0 0.00 0.00 0.00 62 1017.3
20260507195100 78 17 3.0 4.0 0.00 0.00 0.00 61 1017.6
20260507194556 77 349 5.0 8.0 0.00 0.00 0.00 63 1017.9
20260507194052 77 341 3.0 3.0 0.00 0.00 0.00 65 1017.8
20260507193549 78 5 3.0 4.0 0.00 0.00 0.00 61 1017.9
20260507193046 79 345 5.0 7.0 0.00 0.00 0.00 61 1017.7
20260507192542 78 12 4.0 4.0 0.00 0.00 0.00 59 1017.7
20260507192039 77 75 3.0 3.0 0.00 0.00 0.00 61 1017.6
20260507191534 78 356 2.0 2.0 0.00 0.00 0.00 61 1017.9
20260507191032 78 39 4.0 4.0 0.00 0.00 0.00 60 1017.7
20260507190529 79 27 4.0 5.0 0.00 0.00 0.00 59 1017.7
20260507190028 79 356 5.0 8.0 0.00 0.00 0.00 60 1017.8
20260507185526 80 337 7.0 10.0 0.00 0.00 0.00 58 1018.0
20260507185022 79 67 4.0 4.0 0.00 0.00 0.00 59 1018.0
20260507184520 79 4 5.0 8.0 0.00 0.00 0.00 63 1018.0
20260507184018 78 342 3.0 3.0 0.00 0.00 0.00 62 1018.0
20260507183514 78 55 4.0 5.0 0.00 0.00 0.00 61 1018.1
20260507183011 79 348 2.0 3.0 0.00 0.00 0.00 61 1018.2
20260507182507 79 31 4.0 5.0 0.00 0.00 0.00 60 1018.3
20260507182003 79 54 4.0 5.0 0.00 0.00 0.00 58 1018.2
20260507181500 79 6 2.0 2.0 0.00 0.00 0.00 61 1018.2
20260507180956 79 341 5.0 7.0 0.00 0.00 0.00 61 1018.2
20260507180453 79 14 5.0 5.0 0.00 0.00 0.00 58 1018.5
20260507175949 79 2 2.0 2.0 0.00 0.00 0.00 63 1018.4
20260507175446 78 338 1.0 2.0 0.00 0.00 0.00 63 1018.3
20260507174943 78 2 5.0 10.0 0.00 0.00 0.00 61 1018.4
20260507174441 79 5 5.0 9.0 0.00 0.00 0.00 59 1018.3
20260507173938 79 16 3.0 4.0 0.00 0.00 0.00 58 1018.5
20260507173435 79 23 5.0 7.0 0.00 0.00 0.00 62 1018.7
20260507172932 78 0 3.0 3.0 0.00 0.00 0.00 64 1018.7
20260507172428 77 6 4.0 5.0 0.00 0.00 0.00 62 1018.5
20260507171924 77 340 5.0 7.0 0.00 0.00 0.00 64 1018.8
20260507171421 79 329 8.0 11.0 0.00 0.00 0.00 59 1019.0
20260507170918 79 57 3.0 4.0 0.00 0.00 0.00 59 1018.9
20260507170415 79 6 6.0 8.0 0.00 0.00 0.00 58 1018.8
20260507165911 79 9 3.0 4.0 0.00 0.00 0.00 58 1019.0
20260507165407 79 52 3.0 3.0 0.00 0.00 0.00 62 1019.2
20260507164903 78 349 10.0 12.0 0.00 0.00 0.00 57 1019.0
20260507164400 79 31 6.0 7.0 0.00 0.00 0.00 57 1019.1
20260507163857 79 49 4.0 4.0 0.00 0.00 0.00 59 1019.2
20260507163354 78 298 4.0 5.0 0.00 0.00 0.00 58 1019.5
20260507162851 78 330 5.0 8.0 0.00 0.00 0.00 57 1019.3
20260507162346 78 3 6.0 9.0 0.00 0.00 0.00 58 1019.6
20260507161844 78 48 7.0 10.0 0.00 0.00 0.00 58 1019.7
20260507161340 78 356 8.0 9.0 0.00 0.00 0.00 57 1019.6
20260507160837 78 355 5.0 7.0 0.00 0.00 0.00 61 1019.6
20260507160332 78 332 2.0 2.0 0.00 0.00 0.00 64 1019.9
20260507155829 78 17 3.0 3.0 0.00 0.00 0.00 61 1020.1
20260507155325 77 6 4.0 7.0 0.00 0.00 0.00 63 1019.7
20260507154822 77 47 4.0 5.0 0.00 0.00 0.00 62 1020.1
20260507154319 77 100 4.0 5.0 0.00 0.00 0.00 63 1020.2
20260507153816 77 64 3.0 3.0 0.00 0.00 0.00 63 1020.1
20260507153312 77 338 3.0 3.0 0.00 0.00 0.00 64 1020.2
20260507152809 77 2 3.0 4.0 0.00 0.00 0.00 64 1020.3
20260507152306 77 37 3.0 3.0 0.00 0.00 0.00 64 1020.5
20260507151801 77 56 4.0 5.0 0.00 0.00 0.00 61 1020.7
20260507151257 77 19 3.0 4.0 0.00 0.00 0.00 62 1020.7
20260507150754 76 276 4.0 5.0 0.00 0.00 0.00 63 1020.8
20260507150251 77 65 4.0 5.0 0.00 0.00 0.00 62 1020.7
20260507145747 76 73 3.0 4.0 0.00 0.00 0.00 63 1021.2
20260507145244 76 35 4.0 4.0 0.00 0.00 0.00 64 1021.2
20260507144741 76 61 6.0 7.0 0.00 0.00 0.00 61 1021.3
20260507144239 76 76 6.0 8.0 0.00 0.00 0.00 62 1021.3
20260507143735 76 341 2.0 2.0 0.00 0.00 0.00 64 1021.3
20260507143232 75 46 4.0 4.0 0.00 0.00 0.00 63 1021.3
20260507142728 76 359 3.0 4.0 0.00 0.00 0.00 63 1020.9
20260507142225 76 67 5.0 5.0 0.00 0.00 0.00 61 1021.4
20260507141721 76 74 4.0 4.0 0.00 0.00 0.00 62 1021.2
20260507141218 75 71 6.0 8.0 0.00 0.00 0.00 64 1021.4
20260507140714 75 30 3.0 5.0 0.00 0.00 0.00 63 1021.2
20260507140212 75 341 3.0 4.0 0.00 0.00 0.00 65 1021.1
20260507135709 75 82 4.0 5.0 0.00 0.00 0.00 65 1021.2
20260507135206 75 44 4.0 5.0 0.00 0.00 0.00 64 1021.4
20260507134702 74 309 2.0 2.0 0.00 0.00 0.00 67 1021.5
20260507134159 74 2 3.0 4.0 0.00 0.00 0.00 66 1021.4
20260507133654 74 46 4.0 5.0 0.00 0.00 0.00 66 1021.3
20260507133152 74 74 4.0 5.0 0.00 0.00 0.00 68 1021.4
20260507132649 74 349 2.0 2.0 0.00 0.00 0.00 70 1021.1
20260507132145 73 79 4.0 4.0 0.00 0.00 0.00 68 1021.4
20260507131643 73 70 5.0 7.0 0.00 0.00 0.00 70 1021.2
20260507131140 73 25 4.0 5.0 0.00 0.00 0.00 71 1021.4
20260507130636 72 37 2.0 3.0 0.00 0.00 0.00 73 1021.5
20260507130134 73 57 2.0 3.0 0.00 0.00 0.00 73 1021.4
20260507125633 73 41 2.0 2.0 0.00 0.00 0.00 72 1021.6
20260507125130 73 5 3.0 4.0 0.00 0.00 0.00 75 1021.6
20260507124626 73 352 1.0 2.0 0.00 0.00 0.00 74 1021.7
20260507124124 73 45 3.0 3.0 0.00 0.00 0.00 73 1021.6
20260507123622 73 79 2.0 2.0 0.00 0.00 0.00 75 1021.5
20260507123119 74 309 1.0 1.0 0.00 0.00 0.00 74 1021.7
20260507122614 75 127 2.0 3.0 0.00 0.00 0.00 72 1021.5
20260507122110 73 353 1.0 1.0 0.00 0.00 0.00 76 1021.4
20260507121606 73 151 2.0 2.0 0.00 0.00 0.00 76 1021.3
20260507121102 71 5 1.0 1.0 0.00 0.00 0.00 81 1021.5
20260507120558 70 16 0.0 0.0 0.00 0.00 0.00 85 1021.4
20260507120055 69 339 0.0 0.0 0.00 0.00 0.00 87 1021.5
20260507115551 0 0.0 0.0 0.00 0.00 0.00 1021.3
20260507115047 62 330 0.0 0.0 0.00 0.00 0.00 99 1021.4
20260507114543 62 330 0.0 0.0 0.00 0.00 0.00 99 1021.6
20260507114041 62 329 0.0 0.0 0.00 0.00 0.00 99 1021.6
20260507113537 61 319 0.0 0.0 0.00 0.00 0.00 99 1021.8
20260507113035 61 302 0.0 0.0 0.00 0.00 0.00 99 1021.5
20260507112532 61 305 0.0 0.0 0.00 0.00 0.00 99 1021.9
20260507112029 60 299 0.0 0.0 0.00 0.00 0.00 99 1021.8
20260507111527 60 313 0.0 0.0 0.00 0.00 0.00 99 1021.6
20260507111023 60 313 0.0 0.0 0.00 0.00 0.00 99 1021.6
20260507110519 59 306 0.0 0.0 0.00 0.00 0.00 99 1021.5
20260507110016 58 300 0.0 0.0 0.00 0.00 0.00 99 1021.5
20260507105513 57 308 0.0 0.0 0.00 0.00 0.00 99 1021.6
20260507105009 56 308 0.0 0.0 0.00 0.00 0.00 99 1021.6
20260507104507 56 307 0.0 0.0 0.00 0.00 0.00 99 1021.5
20260507104003 55 294 0.0 0.0 0.00 0.00 0.00 99 1021.5
20260507103500 55 301 0.0 0.0 0.00 0.00 0.00 99 1021.3
20260507102955 55 305 0.0 0.0 0.00 0.00 0.00 99 1021.7
20260507102452 54 314 1.0 1.0 0.00 0.00 0.00 99 1021.2
20260507101949 53 295 0.0 0.0 0.00 0.00 0.00 99 1021.5
20260507101443 54 294 0.0 0.0 0.00 0.00 0.00 99 1021.4
20260507100940 53 313 0.0 0.0 0.00 0.00 0.00 99 1021.5
20260507100438 53 295 0.0 0.0 0.00 0.00 0.00 99 1021.3
20260507095936 53 294 0.0 0.0 0.00 0.00 0.00 99 1021.4
20260507095433 53 294 0.0 0.0 0.00 0.00 0.00 99 1021.4
20260507094930 53 294 0.0 0.0 0.00 0.00 0.00 99 1021.4
20260507094426 53 295 0.0 0.0 0.00 0.00 0.00 99 1021.3
20260507093923 53 297 0.0 0.0 0.00 0.00 0.00 99 1021.5
20260507093421 53 300 0.0 0.0 0.00 0.00 0.00 99 1021.2
20260507092920 53 302 0.0 0.0 0.00 0.00 0.00 99 1021.4
20260507092415 53 308 0.0 0.0 0.00 0.00 0.00 99 1021.4
20260507091912 53 297 0.0 0.0 0.00 0.00 0.00 99 1021.6
20260507091408 53 294 0.0 0.0 0.00 0.00 0.00 99 1021.2
20260507090904 54 299 0.0 0.0 0.00 0.00 0.00 99 1021.5
20260507090401 54 303 0.0 0.0 0.00 0.00 0.00 99 1021.4
20260507085858 54 302 0.0 0.0 0.00 0.00 0.00 99 1021.3
20260507085354 54 302 0.0 0.0 0.00 0.00 0.00 99 1021.2
20260507084852 54 300 0.0 0.0 0.00 0.00 0.00 99 1021.4
20260507084348 54 295 0.0 0.0 0.00 0.00 0.00 99 1021.1
20260507083846 54 295 0.0 0.0 0.00 0.00 0.00 99 1021.2
20260507083342 54 301 0.0 0.0 0.00 0.00 0.00 99 1021.2
20260507082838 54 303 0.0 0.0 0.00 0.00 0.00 99 1021.1
20260507082334 54 314 0.0 0.0 0.00 0.00 0.00 99 1021.2
20260507081831 54 307 0.0 0.0 0.00 0.00 0.00 99 1021.2
20260507081327 54 303 0.0 0.0 0.00 0.00 0.00 99 1021.1
20260507080824 54 295 0.0 0.0 0.00 0.00 0.00 99 1021.2
20260507080320 54 294 0.0 0.0 0.00 0.00 0.00 99 1021.4
20260507075815 54 296 0.0 0.0 0.00 0.00 0.00 99 1021.5
20260507075312 54 295 0.0 0.0 0.00 0.00 0.00 99 1021.4
20260507074809 54 295 0.0 0.0 0.00 0.00 0.00 99 1021.4
20260507074306 54 295 0.0 0.0 0.00 0.00 0.00 99 1021.6
20260507073803 54 295 0.0 0.0 0.00 0.00 0.00 99 1021.4
20260507073300 54 295 0.0 0.0 0.00 0.00 0.00 99 1021.5
20260507072757 55 295 0.0 0.0 0.00 0.00 0.00 99 1021.6
20260507072255 55 300 0.0 0.0 0.00 0.00 0.00 99 1021.7
20260507071752 55 303 0.0 0.0 0.00 0.00 0.00 99 1021.9
20260507071248 55 303 0.0 0.0 0.00 0.00 0.00 99 1021.9
20260507070745 55 295 0.0 0.0 0.00 0.00 0.00 99 1022.0
20260507070242 55 305 0.0 0.0 0.00 0.00 0.00 99 1021.7
20260507065738 55 303 0.0 0.0 0.00 0.00 0.00 99 1022.0
20260507065235 55 308 0.0 0.0 0.00 0.00 0.00 99 1022.2
20260507064733 55 303 0.0 0.0 0.00 0.00 0.00 99 1022.2
20260507064232 55 294 0.0 0.0 0.00 0.00 0.00 99 1022.0
20260507063728 55 299 0.0 0.0 0.00 0.00 0.00 99 1022.4
20260507063225 55 295 0.0 0.0 0.00 0.00 0.00 99 1022.2
20260507062722 55 295 0.0 0.0 0.00 0.00 0.00 99 1022.3
20260507062220 55 294 1.0 3.0 0.00 0.00 0.00 99 1022.2
20260507061717 56 299 0.0 0.0 0.00 0.00 0.00 99 1022.4
20260507061215 56 311 0.0 0.0 0.00 0.00 0.00 99 1022.4
20260507060713 56 302 0.0 0.0 0.00 0.00 0.00 99 1022.4
20260507060209 56 295 0.0 0.0 0.00 0.00 0.00 99 1022.6
20260507055705 56 294 0.0 0.0 0.00 0.00 0.00 99 1022.4
20260507055201 57 321 0.0 0.0 0.00 0.00 0.00 99 1022.8